Regional Weather Roundup
Issued by NWS

Home | Current Version | Previous Version | Graphics & Text | Print | Product List | Glossary On
Versions: 1 2 3 4 5 6 7 8 9 10 11 12 13 14 15 16 17 18 19 20 21 22 23 24 25 26 27 28 29 30 31 32 33 34 35 36 37 38 39 40 41 42 43 44 45 46 47 48 49 50
163
ASUS45 KABQ 220610
RWRNM
NEW MEXICO REGIONAL WEATHER ROUNDUP
NATIONAL WEATHER SERVICE ALBUQUERQUE NM
1200 AM MDT SAT JUL 22 2017

NOTE: "FAIR" MEANS FEW OR NO CLOUDS BELOW 12,000 FEET AGL WITH NO
       SIGNIFICANT WEATHER OR OBSTRUCTIONS TO VISION.

      THIS PRODUCT IS RELEASED AS TWO VERSIONS.  ONE VERSION NEAR
      THE TOP OF THE HOUR CONTAINING PRELIMINARY DATA FROM ALBUQUERQUE
      AND OTHER STATIONS.  A FINAL VERSION WITH ADDITIONAL DATA IS
      ISSUED ABOUT 10 MINUTES AFTER THE HOUR.

NMZ501-503-504-510>518-220700-
NORTHWEST PLATEAU/NORTHCENTRAL MOUNTAINS

CITY           SKY/WX    TMP DP  RH WIND       PRES   REMARKS
FARMINGTON     FAIR      67  61  81 N5        30.15F
6HR MIN TEMP:  67; 6HR MAX TEMP:  72; 6HR PCP: TRACE;

LOS ALAMOS     FAIR      71  48  43 S13       30.28S
SANTA FE       FAIR      74  52  46 SW6       30.22R
6HR MIN TEMP:  73; 6HR MAX TEMP:  89;

TAOS           MOCLDY    66  45  45 SE7       30.29R
ANGEL FIRE     FAIR      51  46  82 CALM      30.38S

$$
NMZ402-403-502-505>509-220700-
WESTCENTRAL MOUNTAINS/SOUTHWEST MOUNTAINS

CITY           SKY/WX    TMP DP  RH WIND       PRES   REMARKS
GALLUP         FAIR      65  58  78 SW3       30.24F
6HR MIN TEMP:  65; 6HR MAX TEMP:  72; 6HR PCP: TRACE;

GRANTS         FAIR      59  54  82 SE3       30.27R
SILVER CITY    DRIZZLE   67  63  86 N7        30.19F

$$
NMZ407-409-411-412-220700-
SOUTHERN DESERTS

CITY           SKY/WX    TMP DP  RH WIND       PRES   REMARKS
DEMING         FAIR      73  66  78 CALM      30.12S
6HR MIN TEMP:  72; 6HR MAX TEMP:  77;

LAS CRUCES     FAIR      69  67  92 CALM      30.13F
HOLLOMAN AFB   FAIR      75  58  56 SE6       30.11S
ALAMOGORDO     FAIR      70  59  68 SE3       30.11S
T OR C         FAIR      75  57  53 SW3       30.13S
6HR MIN TEMP:  74; 6HR MAX TEMP:  86;


$$
NMZ519>523-220700-
CENTRAL VALLEYS/CENTRAL HIGHLANDS

CITY           SKY/WX    TMP DP  RH WIND       PRES   REMARKS
ALBUQUERQUE    FAIR      75  52  44 S6        30.16S
6HR MIN TEMP:  75; 6HR MAX TEMP:  89;

DOUBLE EAGLE   FAIR      67  52  58 S6        30.20R
MORIARTY ARPT  FAIR      67  53  61 S7        30.24R
6HR MIN TEMP:  67; 6HR MAX TEMP:  83;

CLINES CORNERS FAIR      65  49  56 SW13      30.29R
6HR MIN TEMP:  65; 6HR MAX TEMP:  82;

BELEN          FAIR      72  53  50 S6        30.16R
6HR MIN TEMP:  72; 6HR MAX TEMP:  89;

SOCORRO        FAIR      72  60  65 SE6       30.13S
6HR MIN TEMP:  72; 6HR MAX TEMP:  87;


$$
NMZ524>526-539-540-220700-
SOUTHCENTRAL MOUNTAINS

CITY           SKY/WX    TMP DP  RH WIND       PRES   REMARKS
RUIDOSO        FAIR      63  50  63 W7        30.29S

$$
NMZ527>531-220700-
NORTHEAST HIGHLANDS/NORTHEAST PLAINS

CITY           SKY/WX    TMP DP  RH WIND       PRES   REMARKS
LAS VEGAS      FAIR      67  51  56 S14       30.25S
6HR MIN TEMP:  67; 6HR MAX TEMP:  85;

RATON          MOCLDY    74  43  32 NE13      30.21R
6HR MIN TEMP:  71; 6HR MAX TEMP:  91;

CLAYTON        FAIR      71  50  47 S12       30.09F
6HR MIN TEMP:  70; 6HR MAX TEMP:  93;


$$
NMZ532>537-220700-
EASTCENTRAL PLAINS

CITY           SKY/WX    TMP DP  RH WIND       PRES   REMARKS
SANTA ROSA     FAIR      76  45  33 CALM      30.08S
TUCUMCARI      FAIR      78  59  51 S10       30.01S
6HR MIN TEMP:  78; 6HR MAX TEMP:  99;

CANNON AFB     FAIR      76  58  53 SW8       30.10R
6HR MIN TEMP:  76; 6HR MAX TEMP:  92;

CLOVIS AIRPORT FAIR      74  59  59 SW9       30.10S

$$
NMZ028-029-538-220700-
SOUTHEAST PLAINS

CITY           SKY/WX    TMP DP  RH WIND       PRES   REMARKS
ROSWELL        FAIR      78  56  46 S8        30.04S
6HR MIN TEMP:  78; 6HR MAX TEMP:  94;

ARTESIA        FAIR      77  61  57 SW5       30.04S
CARLSBAD       FAIR      76  66  71 SE6       30.02S
6HR MIN TEMP:  76; 6HR MAX TEMP:  88;

HOBBS          FAIR      73  64  73 S5        30.08F


$$




USA.gov is the U.S. government's official web portal to all federal, state and local government web resources and services.